CW9987 Weather Reports


time (UTC)temp
F
wind
direction
speed
knots
gust
knots
rain 1hr
in
rain 24hr
in
rain mn
in
humidity
%
barometer
mb
20260906120055 53 0 0.0 1.7 0.00 0.00 0.00 92 1019.9
20260906114604 53 0 0.0 0.0 0.00 0.00 0.00 92 1019.6
20260906113057 54 0 0.0 1.7 0.00 0.00 0.00 92 1019.5
20260906111552 54 0 0.0 1.7 0.00 0.00 0.00 91 1019.5
20260906110054 54 61 0.0 1.7 0.00 0.00 0.00 91 1019.4
20260906104549 54 0 0.0 1.7 0.00 0.00 0.00 92 1019.3
20260906103057 54 0 0.0 1.7 0.00 0.00 0.00 91 1019.5
20260906101557 54 0 0.0 1.7 0.00 0.00 0.00 90 1019.5
20260906100056 55 61 0.0 1.7 0.00 0.00 0.00 90 1019.2
20260906094605 55 0 0.0 1.7 0.00 0.00 0.00 89 1019.2
20260906093058 56 61 0.0 1.7 0.00 0.00 0.00 90 1019.2
20260906091603 57 0 0.0 0.0 0.00 0.00 0.00 89 1019.2
20260906090056 57 61 0.0 1.7 0.00 0.00 0.00 88 1018.9
20260906084604 57 61 0.9 1.7 0.00 0.00 0.00 87 1018.6
20260906083057 58 61 0.0 1.7 0.00 0.00 0.00 87 1018.6
20260906081558 58 71 0.9 1.7 0.00 0.00 0.00 87 1018.4
20260906080055 58 86 0.0 1.7 0.00 0.00 0.00 86 1018.2
20260906074554 58 55 0.9 1.7 0.00 0.00 0.00 85 1018.3
20260906073055 59 59 0.0 1.7 0.00 0.00 0.00 84 1018.2
20260906071556 59 55 0.9 2.6 0.00 0.00 0.00 83 1018.2
20260906070056 60 74 0.9 2.6 0.00 0.00 0.00 83 1018.4
20260906064553 60 94 0.9 3.5 0.00 0.00 0.00 82 1018.3
20260906063101 60 89 1.7 5.2 0.00 0.00 0.00 82 1018.2
20260906061600 61 79 1.7 3.5 0.00 0.00 0.00 81 1018.3
20260906060056 61 87 0.9 3.5 0.00 0.00 0.00 80 1018.2
20260906054553 62 61 1.7 3.5 0.00 0.00 0.00 81 1018.2
20260906053100 62 64 0.9 2.6 0.00 0.00 0.00 80 1018.1
20260906051559 63 87 1.7 3.5 0.00 0.00 0.00 79 1018.1
20260906050056 64 86 1.7 6.1 0.00 0.00 0.00 78 1018.0
20260906044550 64 114 1.7 5.2 0.00 0.00 0.00 77 1017.9
20260906043102 65 76 1.7 7.8 0.00 0.00 0.00 77 1017.5
20260906041600 65 77 1.7 7.0 0.00 0.00 0.00 78 1017.3
20260906040056 66 96 0.9 4.3 0.00 0.00 0.00 78 1017.5
20260906034551 66 90 2.6 4.3 0.00 0.00 0.00 80 1017.3
20260906033110 65 98 0.9 2.6 0.00 0.00 0.00 82 1017.3
20260906031553 66 82 0.9 1.7 0.00 0.00 0.00 82 1017.5
20260906030054 67 122 0.0 2.6 0.00 0.00 0.00 80 1017.2
20260906024556 67 92 0.0 1.7 0.00 0.00 0.00 78 1016.9
20260906023100 68 0 0.9 3.5 0.00 0.00 0.00 77 1016.8
20260906021559 69 74 1.7 3.5 0.00 0.00 0.00 76 1016.7
20260906020105 70 57 0.9 2.6 0.00 0.00 0.00 75 1016.6
20260906014602 71 87 0.9 3.5 0.00 0.00 0.00 74 1016.8
20260906013109 72 113 2.6 7.8 0.00 0.00 0.00 73 1016.7
20260906011605 72 121 2.6 6.1 0.00 0.00 0.00 75 1016.4
20260906010058 72 108 0.0 2.6 0.00 0.00 0.00 77 1016.3
20260906004603 72 88 0.9 2.6 0.00 0.00 0.00 78 1016.2
20260906003102 73 73 0.9 1.7 0.00 0.00 0.00 79 1015.9
20260906001553 74 86 0.9 1.7 0.00 0.00 0.00 78 1016.0
20260906000055 74 51 0.9 1.7 0.00 0.00 0.00 76 1015.9
20260905234559 75 81 0.0 1.7 0.00 0.00 0.00 75 1016.0
20260905233056 76 67 0.0 1.7 0.00 0.00 0.00 73 1015.9
20260905231553 76 111 0.0 1.7 0.00 0.00 0.00 74 1015.7
20260905230058 76 85 0.9 3.5 0.00 0.00 0.00 72 1015.9
20260905224556 76 53 1.7 3.5 0.00 0.00 0.00 73 1015.7
20260905223053 76 74 0.9 5.2 0.00 0.00 0.00 73 1015.7
20260905221549 77 5 1.7 6.1 0.00 0.00 0.00 72 1015.5
20260905220059 77 28 2.6 7.0 0.00 0.00 0.00 72 1015.3
20260905214553 76 70 2.6 9.6 0.00 0.00 0.00 74 1015.3
20260905213107 77 87 3.5 7.0 0.00 0.00 0.00 73 1015.3
20260905211559 76 342 3.5 7.8 0.00 0.00 0.00 76 1015.3
20260905210110 75 76 3.5 6.1 0.00 0.00 0.00 78 1015.3
20260905204558 74 50 0.9 7.0 0.00 0.00 0.00 83 1015.4
20260905203102 73 30 2.6 6.1 0.00 0.00 0.00 82 1015.5
20260905201556 72 98 2.6 5.2 0.00 0.00 0.00 83 1015.7
20260905200056 72 53 2.6 8.7 0.00 0.00 0.00 84 1015.5
20260905194606 71 88 2.6 7.8 0.00 0.01 0.00 86 1015.6
20260905193057 71 53 3.5 8.7 0.00 0.01 0.00 86 1015.9
20260905191559 71 80 2.6 7.8 0.00 0.01 0.00 86 1015.7
20260905190053 71 65 3.5 11.3 0.00 0.01 0.00 85 1015.9
20260905184617 71 44 1.7 7.0 0.00 0.01 0.00 86 1016.0
20260905183101 70 76 2.6 7.8 0.00 0.01 0.00 87 1016.0
20260905181600 70 100 4.3 8.7 0.00 0.01 0.00 87 1015.9
20260905180054 70 96 3.5 7.8 0.00 0.01 0.00 88 1016.0
20260905174600 69 30 2.6 7.8 0.00 0.01 0.00 89 1015.8
20260905173113 69 144 2.6 8.7 0.00 0.01 0.00 89 1015.7
20260905171624 69 61 1.7 5.2 0.00 0.01 0.00 90 1015.8
20260905170054 69 102 1.7 7.0 0.00 0.01 0.00 90 1015.9
20260905164549 69 70 2.6 7.0 0.00 0.05 0.00 88 1016.0
20260905163107 69 107 2.6 6.1 0.00 0.05 0.00 87 1015.9
20260905161554 70 99 3.5 7.8 0.00 0.05 0.00 85 1015.9
20260905160054 71 46 2.6 7.8 0.00 0.05 0.00 85 1015.8
20260905154615 71 105 3.5 9.6 0.00 0.07 0.00 85 1015.6
20260905153106 71 74 1.7 7.8 0.00 0.07 0.00 86 1015.5
20260905151555 70 81 3.5 7.8 0.00 0.07 0.00 85 1015.6
20260905150058 70 121 2.6 7.8 0.00 0.07 0.00 86 1015.5
20260905144558 70 78 2.6 7.8 0.00 0.10 0.00 87 1015.3
20260905143057 69 82 2.6 8.7 0.00 0.10 0.00 87 1015.2
20260905141553 69 69 1.7 7.8 0.00 0.10 0.00 87 1015.2
20260905140105 69 69 1.7 7.0 0.00 0.10 0.00 88 1015.0
20260905134559 69 92 2.6 7.8 0.00 0.37 0.00 88 1014.9
20260905133055 69 33 2.6 7.8 0.00 0.37 0.00 89 1014.9
20260905131552 69 74 4.3 9.6 0.00 0.37 0.00 90 1014.7
20260905130054 69 63 3.5 7.8 0.00 0.37 0.00 91 1014.6
20260905124556 69 34 3.5 8.7 0.00 0.58 0.00 92 1014.6
20260905123101 69 87 2.6 7.0 0.00 0.58 0.00 93 1014.3
20260905121600 69 51 1.7 7.8 0.00 0.58 0.00 93 1014.3